Regional Weather Roundup
Issued by NWS

Home | Current Version | Previous Version | Graphics & Text | Print | Product List | Glossary On
Versions: 1 2 3 4 5 6 7 8 9 10 11 12 13 14 15 16 17 18 19 20 21 22 23 24 25 26 27 28 29 30 31 32 33 34 35 36 37 38 39 40 41 42 43 44 45 46 47 48 49 50
000
ASUS43 KIND 180109
RWRIN

WEATHER ROUNDUP FOR INDIANA
NATIONAL WEATHER SERVICE INDIANAPOLIS IN
900 PM EDT FRI APR 17 2015

NOTE: "FAIR" INDICATES FEW OR NO CLOUDS BELOW 12,000 FEET WITH NO
SIGNIFICANT WEATHER AND/OR OBSTRUCTIONS TO VISIBILITY.

* - STATION DOES NOT REPORT WEATHER SUCH AS PRECIPITATION OR FOG.

+ - STATION NOT QUALITY CONTROLLED BY THE NATIONAL WEATHER SERVICE.
    USE DATA WITH CAUTION...ESPECIALLY DEWPOINT AND RELATIVE
    HUMIDITY OBSERVATIONS.

INZ001>003-010>013-019-020-180200-
NORTHWEST INDIANA

CITY           SKY/WX    TMP DP  RH WIND       PRES   REMARKS
GARY /AIRPORT/ PTCLDY    63  43  48 SE7       30.00S
KNOX *+        CLOUDY    68  23  18 CALM      30.00S
MICHIGAN CITY+ CLOUDY    68  36  30 CALM      30.01S
MONTICELLO +   CLEAR     68  48  49 CALM      30.01R
RENSSELAER +   CLEAR     70  46  43 CALM      30.01S
VALPARAISO     CLEAR     69  46  43 CALM      30.01S

$$

LMZ046-743>745-180200-
SOUTHERN LAKE MICHIGAN

STATION/POSITION TIME  TEMP WIND        PRES
                       AIR  DIR/SP/G
                 (UTC) (F)  (DEG/KT/KT) (MB)
BURNS HARBOR     0100   58   80/  2/  4 1016.3S
MICHIGAN CITY    0100   70   70/  4/  4   N/A
4NW MICH CITY    0100   54                N/A

$$

INZ004-005-014>016-021>024-180200-
NORTH CENTRAL INDIANA

CITY           SKY/WX    TMP DP  RH WIND       PRES   REMARKS
ELKHART        CLEAR     64  39  39 CALM      30.02S
GOSHEN         MOCLDY    66  43  43 N5        30.02S
LOGANSPORT +   CLEAR     61  50  67 S5        30.03S
PERU/GRISSOM   PTCLDY    62  49  63 S5        30.02S
ROCHESTER +    MOCLDY    72  46  40 CALM      30.03R
SOUTH BEND     PTCLDY    69  43  38 CALM      30.02S
WARSAW +       CLOUDY    68  45  42 CALM      30.02S

$$

INZ006>009-017-018-025>027-180200-
NORTHEAST INDIANA

CITY           SKY/WX    TMP DP  RH WIND       PRES   REMARKS
ANGOLA *+      CLEAR     66  45  45 NW3       30.03R
AUBURN +       MOCLDY    68  43  40 CALM      30.03S
FORT WAYNE     MOCLDY    64  48  56 W3        30.03R
HUNTINGTON +   MOCLDY    64  39  39 CALM      30.02S

$$

INZ028-029-035-036-043>045-051>053-180200-
WEST CENTRAL INDIANA

CITY           SKY/WX    TMP DP  RH WIND       PRES   REMARKS
CRAWFORDSVL +  PTCLDY    64  40  41 CALM      30.03S
GREENCASTLE +  PTCLDY    66  41  39 CALM      30.04R
LAFAYETTE      CLEAR     64  49  57 CALM      30.01S
TERRE HAUTE    PTCLDY    67  52  58 CALM      30.02R

$$

INZ030>032-037>040-046>048-054>057-064-065-180200-
CENTRAL INDIANA

CITY           SKY/WX    TMP DP  RH WIND       PRES   REMARKS
CP ATTERBURY + MOCLDY    66  43  42 CALM      30.04R
COLUMBUS       CLEAR     66  46  48 CALM      30.03R
FISHERS *+     MOCLDY    64  46  52 CALM      30.04
FRANKFORT +    CLEAR     67  49  51 CALM      30.05S
GREENWOOD *+   MOCLDY    68  39  34 CALM      30.03S
INDIANAPOLIS   MOCLDY    68  42  38 N6        30.02R
-EAGLE CREEK   PTCLDY    68  43  40 CALM      30.02S
KOKOMO *+      CLEAR     68  46  45 SW3       30.02S
MARION +       PTCLDY    66  44  45 SW5       30.03S
MT COMFORT *+  MOCLDY    61  37  41 NE3       30.04S
SHELBYVILLE    MOCLDY    68  47  46 CALM      30.02R
ZIONSVILLE +   PTCLDY    66  44  44 CALM      30.04S

$$

INZ033-034-041-042-049-050-058-059-180200-
EAST CENTRAL INDIANA

CITY           SKY/WX    TMP DP  RH WIND       PRES   REMARKS
MUNCIE         PTCLDY    67  42  40 W3        30.04R

$$

INZ060-061-067>069-081>083-085>088-180200-
SOUTHWEST INDIANA

CITY           SKY/WX    TMP DP  RH WIND       PRES   REMARKS
EVANSVILLE     MOCLDY    70  58  65 CALM      30.01R
HUNTINGBURG *+ MOCLDY    70  57  64 N3        30.01S
WASHINGTON +   MOCLDY    64  57  78 CALM      30.00S

$$

INZ062-063-066-070>080-084-089>092-180200-
SOUTH CENTRAL AND SOUTHEAST INDIANA

CITY           SKY/WX    TMP DP  RH WIND       PRES   REMARKS
BEDFORD +      MOCLDY    68  50  52 E5        30.02
BLOOMINGTON    MOCLDY    69  46  43 NE6       30.02R
MADISON *+     MOCLDY    68  50  52 CALM      30.04S
NORTH VERNON + MOCLDY    64  52  63 CALM      30.04

$$



USA.gov is the U.S. government's official web portal to all federal, state and local government web resources and services.